Location: Unspecified
(43.3830°N, 0.0000°E)
Time: 19:43:35
(UTC+00:00)

Vanguard 2 - Pass Details

Date: 26 June 2019
Orbit: 554 x 2938 km, 32.9° (Epoch: 21 August)

Event Time Altitude Azimuth Distance (km) Brightness Sun altitude
Rises 09:02:40 0° 250° (WSW) 3,079 10.3 48.1°
Reaches altitude 10° 09:04:53 10° 240° (WSW) 2,340 9.8 48.4°
Maximum altitude 09:09:47 34° 176° (S) 1,628 9.8 49.3°
Drops below altitude 10° 09:17:11 10° 116° (ESE) 3,580 11.8 50.6°
Sets 09:21:24 0° 109° (ESE) 4,997 12.3 51.3°
